When you browse on this site, cookies collect data to enhance your experience and personalize the content and advertising you see.
Visit our Privacy Policy to learn more. By continuing to use the site, you agree to this use of cookies and data.
  • In Romania
  • List of Countries
  • For 7 days
  • Water Temperature
  • Weather Map
  • Weather Widgets
  • user-avatar
    Login

    Hourly Weather Savigny-sur-Orge

    Today, 1 June, Monday

    Time Temperature Precipitation Wind Pressure Humidity
    00:00 +15°C° 0 mm 2 mps 757 mmHg 71%
    01:00 +14°C° 0 mm 2 mps 757 mmHg 72%
    02:00 +13°C° 0 mm 3 mps 756 mmHg 73%
    03:00 +12°C° 0 mm 3 mps 756 mmHg 74%
    04:00 +13°C° 0 mm 3 mps 756 mmHg 73%
    05:00 +13°C° 0 mm 3 mps 757 mmHg 72%
    06:00 +14°C° 0 mm 3 mps 757 mmHg 70%
    07:00 +17°C° 0 mm 4 mps 757 mmHg 65%
    08:00 +19°C° 0 mm 4 mps 757 mmHg 60%
    09:00 +21°C° 0 mm 4 mps 757 mmHg 56%
    10:00 +22°C° 0 mm 4 mps 757 mmHg 53%
    11:00 +23°C° 0 mm 4 mps 757 mmHg 51%
    12:00 +25°C° 0 mm 5 mps 757 mmHg 49%
    13:00 +25°C° 0 mm 4 mps 757 mmHg 50%
    14:00 +25°C° 0 mm 4 mps 756 mmHg 50%
    15:00 +26°C° 0 mm 4 mps 756 mmHg 51%
    16:00 +25°C° 0 mm 4 mps 756 mmHg 55%
    17:00 +25°C° 0 mm 3 mps 756 mmHg 59%
    18:00 +24°C° 0 mm 3 mps 756 mmHg 63%
    19:00 +22°C° 0 mm 3 mps 756 mmHg 67%
    20:00 +21°C° 0 mm 3 mps 756 mmHg 71%
    21:00 +19°C° 0 mm 2 mps 757 mmHg 75%
    22:00 +18°C° 0 mm 2 mps 757 mmHg 77%
    23:00 +18°C° 0 mm 2 mps 757 mmHg 79%

    Tomorrow, 2 June, Tuesday

    Time Temperature Precipitation Wind Pressure Humidity
    00:00 +17°C° 0 mm 2 mps 757 mmHg 80%
    01:00 +17°C° 0 mm 2 mps 756 mmHg 81%
    02:00 +16°C° 0 mm 2 mps 756 mmHg 82%
    03:00 +16°C° 0 mm 2 mps 756 mmHg 83%
    04:00 +16°C° 0 mm 2 mps 756 mmHg 80%
    05:00 +17°C° 0 mm 3 mps 756 mmHg 76%
    06:00 +18°C° 0 mm 3 mps 756 mmHg 73%
    07:00 +19°C° 0 mm 3 mps 756 mmHg 68%
    08:00 +21°C° 0 mm 3 mps 756 mmHg 62%
    09:00 +24°C° 0 mm 2 mps 756 mmHg 57%
    10:00 +25°C° 0 mm 2 mps 756 mmHg 52%
    11:00 +26°C° 0 mm 2 mps 756 mmHg 48%
    12:00 +28°C° 0 mm 2 mps 756 mmHg 43%
    13:00 +28°C° 0 mm 2 mps 755 mmHg 43%
    14:00 +28°C° 0 mm 2 mps 755 mmHg 43%
    15:00 +28°C° 0 mm 2 mps 755 mmHg 43%
    16:00 +27°C° 0 mm 2 mps 754 mmHg 47%
    17:00 +26°C° 0 mm 2 mps 754 mmHg 52%
    18:00 +26°C° 0 mm 2 mps 753 mmHg 57%
    19:00 +24°C° 0 mm 2 mps 753 mmHg 60%
    20:00 +23°C° 0 mm 2 mps 753 mmHg 63%
    21:00 +20°C° 0 mm 2 mps 753 mmHg 66%
    22:00 +19°C° 0 mm 2 mps 753 mmHg 68%
    23:00 +18°C° 0 mm 2 mps 752 mmHg 69%

    Day after tomorrow, 3 June, Wednesday

    Time Temperature Precipitation Wind Pressure Humidity
    00:00 +18°C° 0 mm 2 mps 752 mmHg 70%
    01:00 +17°C° 0.1 mm 2 mps 752 mmHg 72%
    02:00 +16°C° 0.1 mm 1 mps 751 mmHg 74%
    03:00 +16°C° 0.1 mm 1 mps 751 mmHg 75%
    04:00 +16°C° 0.4 mm 1 mps 750 mmHg 76%
    05:00 +18°C° 0.4 mm 1 mps 750 mmHg 77%
    06:00 +18°C° 0.4 mm 1 mps 749 mmHg 77%
    07:00 +19°C° 0.6 mm 1 mps 749 mmHg 75%
    08:00 +19°C° 0.6 mm 2 mps 749 mmHg 73%
    09:00 +20°C° 0.6 mm 2 mps 748 mmHg 71%
    10:00 +20°C° 0.8 mm 2 mps 748 mmHg 71%
    11:00 +20°C° 0.8 mm 2 mps 747 mmHg 70%
    12:00 +21°C° 0.8 mm 2 mps 747 mmHg 69%
    13:00 +21°C° 0.5 mm 2 mps 746 mmHg 70%
    14:00 +20°C° 0.5 mm 3 mps 746 mmHg 71%
    15:00 +20°C° 0.5 mm 3 mps 745 mmHg 72%
    16:00 +20°C° 1.1 mm 3 mps 745 mmHg 75%
    17:00 +19°C° 1.1 mm 3 mps 745 mmHg 78%
    18:00 +19°C° 1.1 mm 2 mps 744 mmHg 80%
    19:00 +18°C° 0.5 mm 3 mps 745 mmHg 83%
    20:00 +17°C° 0.5 mm 3 mps 745 mmHg 85%
    21:00 +15°C° 0.5 mm 4 mps 745 mmHg 87%
    22:00 +14°C° 0 mm 3 mps 745 mmHg 88%
    23:00 +14°C° 0 mm 3 mps 744 mmHg 88%

    4 June, Thursday

    Time Temperature Precipitation Wind Pressure Humidity
    00:00 +14°C° 0 mm 3 mps 744 mmHg 89%
    01:00 +13°C° 0 mm 3 mps 744 mmHg 89%
    02:00 +13°C° 0 mm 3 mps 744 mmHg 90%
    03:00 +13°C° 0 mm 3 mps 744 mmHg 90%
    04:00 +13°C° 0 mm 3 mps 744 mmHg 88%
    05:00 +13°C° 0 mm 3 mps 744 mmHg 86%
    06:00 +14°C° 0 mm 4 mps 744 mmHg 84%
    07:00 +14°C° 0 mm 4 mps 744 mmHg 80%
    08:00 +15°C° 0 mm 4 mps 744 mmHg 76%
    09:00 +17°C° 0 mm 4 mps 744 mmHg 72%
    10:00 +16°C° 0.3 mm 5 mps 744 mmHg 73%
    11:00 +15°C° 0.3 mm 6 mps 744 mmHg 74%
    12:00 +15°C° 0.3 mm 6 mps 745 mmHg 75%
    13:00 +15°C° 0.1 mm 6 mps 745 mmHg 73%
    14:00 +15°C° 0.1 mm 6 mps 745 mmHg 70%
    15:00 +15°C° 0.1 mm 6 mps 745 mmHg 68%
    16:00 +14°C° 0 mm 5 mps 745 mmHg 67%
    17:00 +14°C° 0 mm 5 mps 746 mmHg 65%
    18:00 +14°C° 0 mm 5 mps 746 mmHg 64%
    19:00 +12°C° 0 mm 4 mps 747 mmHg 65%
    20:00 +11°C° 0 mm 3 mps 747 mmHg 67%
    21:00 +10°C° 0 mm 3 mps 748 mmHg 68%
    22:00 +10°C° 0 mm 2 mps 748 mmHg 71%
    23:00 +9°C° 0 mm 2 mps 748 mmHg 73%

    5 June, Friday

    Time Temperature Precipitation Wind Pressure Humidity
    00:00 +9°C° 0 mm 2 mps 748 mmHg 75%
    01:00 +9°C° 0 mm 2 mps 748 mmHg 78%
    02:00 +9°C° 0 mm 2 mps 748 mmHg 80%
    03:00 +8°C° 0 mm 2 mps 748 mmHg 83%
    04:00 +9°C° 0 mm 2 mps 748 mmHg 82%
    05:00 +10°C° 0 mm 3 mps 748 mmHg 81%
    06:00 +11°C° 0 mm 3 mps 748 mmHg 80%
    07:00 +12°C° 0.1 mm 3 mps 748 mmHg 75%
    08:00 +14°C° 0.1 mm 3 mps 748 mmHg 69%
    09:00 +15°C° 0.1 mm 4 mps 748 mmHg 64%
    10:00 +17°C° 0.2 mm 4 mps 748 mmHg 61%
    11:00 +18°C° 0.2 mm 4 mps 748 mmHg 58%
    12:00 +19°C° 0.2 mm 5 mps 748 mmHg 56%
    13:00 +17°C° 0.1 mm 5 mps 748 mmHg 62%
    14:00 +17°C° 0.1 mm 4 mps 748 mmHg 68%
    15:00 +15°C° 0.1 mm 4 mps 748 mmHg 75%
    16:00 +15°C° 0 mm 5 mps 748 mmHg 75%
    17:00 +15°C° 0 mm 5 mps 748 mmHg 75%
    18:00 +15°C° 0 mm 5 mps 748 mmHg 76%
    19:00 +15°C° 0 mm 5 mps 748 mmHg 77%
    20:00 +15°C° 0 mm 5 mps 748 mmHg 77%
    21:00 +14°C° 0 mm 5 mps 749 mmHg 78%
    22:00 +14°C° 0 mm 5 mps 749 mmHg 78%
    23:00 +14°C° 0 mm 5 mps 749 mmHg 78%

    6 June, Saturday

    Time Temperature Precipitation Wind Pressure Humidity
    00:00 +14°C° 0 mm 5 mps 749 mmHg 79%
    01:00 +14°C° 0 mm 5 mps 749 mmHg 79%
    02:00 +14°C° 0 mm 5 mps 749 mmHg 79%
    03:00 +14°C° 0 mm 4 mps 749 mmHg 79%
    04:00 +14°C° 0.1 mm 4 mps 749 mmHg 80%
    05:00 +14°C° 0.1 mm 4 mps 750 mmHg 80%
    06:00 +14°C° 0.1 mm 4 mps 750 mmHg 80%
    07:00 +15°C° 0.1 mm 4 mps 750 mmHg 75%
    08:00 +15°C° 0.1 mm 4 mps 750 mmHg 69%
    09:00 +17°C° 0.1 mm 4 mps 751 mmHg 64%
    10:00 +18°C° 0.1 mm 4 mps 751 mmHg 61%
    11:00 +18°C° 0.1 mm 4 mps 751 mmHg 59%
    12:00 +19°C° 0.1 mm 4 mps 751 mmHg 56%
    13:00 +19°C° 0 mm 4 mps 751 mmHg 57%
    14:00 +19°C° 0 mm 4 mps 751 mmHg 58%
    15:00 +18°C° 0 mm 4 mps 751 mmHg 59%
    16:00 +18°C° 0.1 mm 4 mps 751 mmHg 62%
    17:00 +17°C° 0.1 mm 3 mps 751 mmHg 65%
    18:00 +17°C° 0.1 mm 3 mps 751 mmHg 68%
    19:00 +16°C° 0 mm 3 mps 751 mmHg 67%
    20:00 +14°C° 0 mm 3 mps 751 mmHg 66%
    21:00 +14°C° 0 mm 2 mps 751 mmHg 64%
    22:00 +13°C° 0 mm 2 mps 751 mmHg 66%
    23:00 +12°C° 0 mm 2 mps 752 mmHg 67%
    Show more